| time (UTC) | temp C | wind direction | speed KPH | gust KPH | rain 1hr cm | rain 24hr cm | rain mn cm | humidity % | barometer mb |
| 20260903231802 | 17 | 240 | 9.7 | 0.0 | 0.00 | 0.00 | 0.00 | 93 | 1011.0 |
| 20260903231055 | 17 | 230 | 9.7 | 0.0 | 0.00 | 0.00 | 0.00 | 93 | 1011.0 |
| 20260903230300 | 17 | 230 | 9.7 | 0.0 | 0.00 | 0.00 | 0.00 | 93 | 1011.0 |
| 20260903225059 | 17 | 230 | 9.7 | 0.0 | 0.00 | 0.00 | 0.00 | 93 | 1011.0 |
| 20260903224802 | 17 | 230 | 9.7 | 0.0 | 0.00 | 0.00 | 0.00 | 93 | 1011.0 |
| 20260903223300 | 17 | 230 | 12.9 | 0.0 | 0.00 | 0.00 | 0.00 | 93 | 1011.0 |
| 20260903223057 | 17 | 230 | 12.9 | 0.0 | 0.00 | 0.00 | 0.00 | 93 | 1011.0 |
| 20260903221807 | 17 | 230 | 12.9 | 0.0 | 0.00 | 0.00 | 0.00 | 93 | 1011.0 |
| 20260903221055 | 17 | 230 | 11.3 | 0.0 | 0.00 | 0.00 | 0.00 | 93 | 1011.0 |
| 20260903220300 | 17 | 230 | 11.3 | 0.0 | 0.00 | 0.00 | 0.00 | 93 | 1011.0 |
| 20260903215104 | 17 | 230 | 11.3 | 0.0 | 0.00 | 0.00 | 0.00 | 93 | 1011.0 |
| 20260903214801 | 17 | 230 | 11.3 | 0.0 | 0.00 | 0.00 | 0.00 | 93 | 1011.0 |
| 20260903213300 | 17 | 220 | 12.9 | 0.0 | 0.00 | 0.00 | 0.00 | 93 | 1011.0 |
| 20260903213102 | 17 | 220 | 12.9 | 0.0 | 0.00 | 0.00 | 0.00 | 93 | 1011.0 |
| 20260903211802 | 17 | 220 | 12.9 | 0.0 | 0.00 | 0.00 | 0.00 | 93 | 1011.0 |
| 20260903211101 | 17 | 210 | 9.7 | 0.0 | 0.00 | 0.00 | 0.00 | 93 | 1011.0 |
| 20260903205057 | 17 | 210 | 9.7 | 0.0 | 0.00 | 0.00 | 0.00 | 93 | 1011.0 |
| 20260903204801 | 17 | 210 | 9.7 | 0.0 | 0.00 | 0.00 | 0.00 | 93 | 1011.0 |
| 20260903203301 | 17 | 220 | 11.3 | 0.0 | 0.00 | 0.00 | 0.00 | 93 | 1011.0 |
| 20260903203056 | 17 | 220 | 11.3 | 0.0 | 0.00 | 0.00 | 0.00 | 93 | 1011.0 |
| 20260903201803 | 17 | 220 | 11.3 | 0.0 | 0.00 | 0.00 | 0.00 | 93 | 1011.0 |
| 20260903201054 | 17 | 220 | 8.0 | 0.0 | 0.00 | 0.00 | 0.00 | 93 | 1012.0 |
| 20260903200302 | 17 | 220 | 8.0 | 0.0 | 0.00 | 0.00 | 0.00 | 93 | 1012.0 |
| 20260903195057 | 17 | 220 | 8.0 | 0.0 | 0.00 | 0.00 | 0.00 | 93 | 1012.0 |
| 20260903194801 | 17 | 220 | 8.0 | 0.0 | 0.00 | 0.00 | 0.00 | 93 | 1012.0 |
| 20260903193300 | 17 | 200 | 4.8 | 0.0 | 0.00 | 0.00 | 0.00 | 100 | 1012.0 |
| 20260903193055 | 17 | 200 | 4.8 | 0.0 | 0.00 | 0.00 | 0.00 | 100 | 1012.0 |
| 20260903191802 | 17 | 200 | 4.8 | 0.0 | 0.00 | 0.00 | 0.00 | 100 | 1012.0 |
| 20260903191054 | 17 | 170 | 4.8 | 0.0 | 0.00 | 0.00 | 0.00 | 93 | 1011.0 |
| 20260903190300 | 17 | 170 | 4.8 | 0.0 | 0.00 | 0.00 | 0.00 | 93 | 1011.0 |
| 20260903185058 | 17 | 170 | 4.8 | 0.0 | 0.00 | 0.00 | 0.00 | 93 | 1011.0 |
| 20260903184801 | 17 | 170 | 4.8 | 0.0 | 0.00 | 0.00 | 0.00 | 93 | 1011.0 |
| 20260903183259 | 17 | 0.0 | 0.0 | 0.00 | 0.00 | 0.00 | 93 | 1011.0 | |
| 20260903183056 | 17 | 0.0 | 0.0 | 0.00 | 0.00 | 0.00 | 93 | 1011.0 | |
| 20260903181802 | 17 | 0.0 | 0.0 | 0.00 | 0.00 | 0.00 | 93 | 1011.0 | |
| 20260903181054 | 17 | 240 | 11.3 | 0.0 | 0.00 | 0.00 | 0.00 | 88 | 1011.0 |
| 20260903180259 | 17 | 240 | 11.3 | 0.0 | 0.00 | 0.00 | 0.00 | 88 | 1011.0 |
| 20260903175055 | 17 | 240 | 11.3 | 0.0 | 0.00 | 0.00 | 0.00 | 88 | 1011.0 |
| 20260903174801 | 17 | 240 | 11.3 | 0.0 | 0.00 | 0.00 | 0.00 | 88 | 1011.0 |
| 20260903173259 | 17 | 190 | 8.0 | 0.0 | 0.00 | 0.00 | 0.00 | 88 | 1011.0 |
| 20260903173053 | 17 | 190 | 8.0 | 0.0 | 0.00 | 0.00 | 0.00 | 88 | 1011.0 |
| 20260903171802 | 17 | 190 | 8.0 | 0.0 | 0.00 | 0.00 | 0.00 | 88 | 1011.0 |
| 20260903171052 | 18 | 210 | 11.3 | 0.0 | 0.00 | 0.00 | 0.00 | 77 | 1011.0 |
| 20260903170259 | 18 | 210 | 11.3 | 0.0 | 0.00 | 0.00 | 0.00 | 77 | 1011.0 |
| 20260903165058 | 18 | 210 | 11.3 | 0.0 | 0.00 | 0.00 | 0.00 | 77 | 1011.0 |
| 20260903164801 | 18 | 210 | 11.3 | 0.0 | 0.00 | 0.00 | 0.00 | 77 | 1011.0 |
| 20260903163259 | 18 | 210 | 9.7 | 0.0 | 0.00 | 0.00 | 0.00 | 77 | 1012.0 |
| 20260903163056 | 18 | 210 | 9.7 | 0.0 | 0.00 | 0.00 | 0.00 | 77 | 1012.0 |
| 20260903161801 | 18 | 210 | 9.7 | 0.0 | 0.00 | 0.00 | 0.00 | 77 | 1012.0 |
| 20260903161054 | 18 | 190 | 11.3 | 0.0 | 0.00 | 0.00 | 0.00 | 77 | 1012.0 |
| 20260903160301 | 18 | 190 | 11.3 | 0.0 | 0.00 | 0.00 | 0.00 | 77 | 1012.0 |
| 20260903155058 | 18 | 190 | 11.3 | 0.0 | 0.00 | 0.00 | 0.00 | 77 | 1012.0 |
| 20260903154801 | 18 | 190 | 11.3 | 0.0 | 0.00 | 0.00 | 0.00 | 77 | 1012.0 |
| 20260903153259 | 18 | 210 | 19.3 | 0.0 | 0.00 | 0.00 | 0.00 | 77 | 1012.0 |
| 20260903153056 | 18 | 210 | 19.3 | 0.0 | 0.00 | 0.00 | 0.00 | 77 | 1012.0 |
| 20260903151801 | 18 | 210 | 19.3 | 0.0 | 0.00 | 0.00 | 0.00 | 77 | 1012.0 |
| 20260903151054 | 21 | 210 | 20.9 | 0.0 | 0.00 | 0.00 | 0.00 | 60 | 1012.0 |
| 20260903150259 | 21 | 210 | 20.9 | 0.0 | 0.00 | 0.00 | 0.00 | 60 | 1012.0 |
| 20260903145103 | 21 | 210 | 20.9 | 0.0 | 0.00 | 0.00 | 0.00 | 60 | 1012.0 |
| 20260903144801 | 21 | 210 | 20.9 | 0.0 | 0.00 | 0.00 | 0.00 | 60 | 1012.0 |
| 20260903143259 | 21 | 210 | 19.3 | 0.0 | 0.00 | 0.00 | 0.00 | 60 | 1012.0 |
| 20260903143101 | 21 | 210 | 19.3 | 0.0 | 0.00 | 0.00 | 0.00 | 60 | 1012.0 |
| 20260903141802 | 21 | 210 | 19.3 | 0.0 | 0.00 | 0.00 | 0.00 | 60 | 1012.0 |
| 20260903141059 | 20 | 200 | 19.3 | 0.0 | 0.00 | 0.00 | 0.00 | 64 | 1012.0 |
| 20260903140259 | 20 | 200 | 19.3 | 0.0 | 0.00 | 0.00 | 0.00 | 64 | 1012.0 |
| 20260903135056 | 20 | 200 | 19.3 | 0.0 | 0.00 | 0.00 | 0.00 | 64 | 1012.0 |
| 20260903134801 | 20 | 200 | 19.3 | 0.0 | 0.00 | 0.00 | 0.00 | 64 | 1012.0 |
| 20260903133259 | 20 | 210 | 25.7 | 0.0 | 0.00 | 0.00 | 0.00 | 64 | 1013.0 |
| 20260903133054 | 20 | 210 | 25.7 | 0.0 | 0.00 | 0.00 | 0.00 | 64 | 1013.0 |
| 20260903131802 | 20 | 210 | 25.7 | 0.0 | 0.00 | 0.00 | 0.00 | 64 | 1013.0 |
| 20260903131053 | 20 | 200 | 20.9 | 38.6 | 0.00 | 0.00 | 0.00 | 64 | 1013.0 |
| 20260903130438 | 20 | 200 | 20.9 | 38.6 | 0.00 | 0.00 | 0.00 | 64 | 1013.0 |
| 20260903130259 | 20 | 200 | 20.9 | 38.6 | 0.00 | 0.00 | 0.00 | 64 | 1013.0 |
| 20260903125056 | 20 | 200 | 20.9 | 38.6 | 0.00 | 0.00 | 0.00 | 64 | 1013.0 |
| 20260903124801 | 20 | 200 | 20.9 | 38.6 | 0.00 | 0.00 | 0.00 | 64 | 1013.0 |
| 20260903123259 | 20 | 190 | 20.9 | 0.0 | 0.00 | 0.00 | 0.00 | 64 | 1013.0 |
| 20260903123055 | 20 | 190 | 20.9 | 0.0 | 0.00 | 0.00 | 0.00 | 64 | 1013.0 |
| 20260903121801 | 20 | 190 | 20.9 | 0.0 | 0.00 | 0.00 | 0.00 | 64 | 1013.0 |
| 20260903121053 | 20 | 200 | 22.5 | 0.0 | 0.00 | 0.00 | 0.00 | 68 | 1014.0 |
| 20260903120259 | 20 | 200 | 22.5 | 0.0 | 0.00 | 0.00 | 0.00 | 68 | 1014.0 |
| 20260903115056 | 20 | 200 | 22.5 | 0.0 | 0.00 | 0.00 | 0.00 | 68 | 1014.0 |
| 20260903114805 | 20 | 200 | 22.5 | 0.0 | 0.00 | 0.00 | 0.00 | 68 | 1014.0 |
| 20260903113259 | 18 | 180 | 16.1 | 0.0 | 0.00 | 0.00 | 0.00 | 72 | 1014.0 |
| 20260903113054 | 18 | 180 | 16.1 | 0.0 | 0.00 | 0.00 | 0.00 | 72 | 1014.0 |
| 20260903111801 | 18 | 180 | 16.1 | 0.0 | 0.00 | 0.00 | 0.00 | 72 | 1014.0 |
| 20260903111053 | 17 | 200 | 14.5 | 0.0 | 0.00 | 0.00 | 0.00 | 77 | 1015.0 |
| 20260903110259 | 17 | 200 | 14.5 | 0.0 | 0.00 | 0.00 | 0.00 | 77 | 1015.0 |
| 20260903105057 | 17 | 200 | 14.5 | 0.0 | 0.00 | 0.00 | 0.00 | 77 | 1015.0 |
| 20260903104801 | 17 | 200 | 14.5 | 0.0 | 0.00 | 0.00 | 0.00 | 77 | 1015.0 |
| 20260903103259 | 17 | 210 | 12.9 | 0.0 | 0.00 | 0.00 | 0.00 | 77 | 1015.0 |
| 20260903103055 | 17 | 210 | 12.9 | 0.0 | 0.00 | 0.00 | 0.00 | 77 | 1015.0 |
| 20260903101801 | 17 | 210 | 12.9 | 0.0 | 0.00 | 0.00 | 0.00 | 77 | 1015.0 |
| 20260903101054 | 17 | 200 | 12.9 | 0.0 | 0.00 | 0.00 | 0.00 | 77 | 1015.0 |
| 20260903100259 | 17 | 200 | 12.9 | 0.0 | 0.00 | 0.00 | 0.00 | 77 | 1015.0 |
| 20260903095056 | 17 | 200 | 12.9 | 0.0 | 0.00 | 0.00 | 0.00 | 77 | 1015.0 |
| 20260903094800 | 17 | 200 | 12.9 | 0.0 | 0.00 | 0.00 | 0.00 | 77 | 1015.0 |
| 20260903093259 | 17 | 200 | 11.3 | 0.0 | 0.00 | 0.00 | 0.00 | 82 | 1016.0 |
| 20260903093055 | 17 | 200 | 11.3 | 0.0 | 0.00 | 0.00 | 0.00 | 82 | 1016.0 |
| 20260903091801 | 17 | 200 | 11.3 | 0.0 | 0.00 | 0.00 | 0.00 | 82 | 1016.0 |
| 20260903091053 | 17 | 200 | 11.3 | 0.0 | 0.00 | 0.00 | 0.00 | 82 | 1016.0 |
| 20260903090259 | 17 | 200 | 11.3 | 0.0 | 0.00 | 0.00 | 0.00 | 82 | 1016.0 |
| 20260903085057 | 17 | 200 | 11.3 | 0.0 | 0.00 | 0.00 | 0.00 | 82 | 1016.0 |
| 20260903084800 | 17 | 200 | 11.3 | 0.0 | 0.00 | 0.00 | 0.00 | 82 | 1016.0 |
| 20260903083259 | 16 | 170 | 9.7 | 0.0 | 0.00 | 0.00 | 0.00 | 82 | 1016.0 |
| 20260903083055 | 16 | 170 | 9.7 | 0.0 | 0.00 | 0.00 | 0.00 | 82 | 1016.0 |
| 20260903081801 | 16 | 170 | 9.7 | 0.0 | 0.00 | 0.00 | 0.00 | 82 | 1016.0 |
| 20260903081054 | 15 | 170 | 8.0 | 0.0 | 0.00 | 0.00 | 0.00 | 87 | 1016.0 |
| 20260903080258 | 15 | 170 | 8.0 | 0.0 | 0.00 | 0.00 | 0.00 | 87 | 1016.0 |
| 20260903075058 | 15 | 170 | 8.0 | 0.0 | 0.00 | 0.00 | 0.00 | 87 | 1016.0 |
| 20260903074800 | 15 | 170 | 8.0 | 0.0 | 0.00 | 0.00 | 0.00 | 87 | 1016.0 |
| 20260903073259 | 15 | 160 | 8.0 | 0.0 | 0.00 | 0.00 | 0.00 | 87 | 1016.0 |
| 20260903073056 | 15 | 160 | 8.0 | 0.0 | 0.00 | 0.00 | 0.00 | 87 | 1016.0 |
| 20260903071800 | 15 | 160 | 8.0 | 0.0 | 0.00 | 0.00 | 0.00 | 87 | 1016.0 |
| 20260903071054 | 13 | 160 | 8.0 | 0.0 | 0.00 | 0.00 | 0.00 | 87 | 1016.0 |
| 20260903070259 | 13 | 160 | 8.0 | 0.0 | 0.00 | 0.00 | 0.00 | 87 | 1016.0 |
| 20260903065057 | 13 | 160 | 8.0 | 0.0 | 0.00 | 0.00 | 0.00 | 87 | 1016.0 |
| 20260903064800 | 13 | 160 | 8.0 | 0.0 | 0.00 | 0.00 | 0.00 | 87 | 1016.0 |
| 20260903063259 | 13 | 160 | 8.0 | 0.0 | 0.00 | 0.00 | 0.00 | 93 | 1016.0 |
| 20260903063056 | 13 | 160 | 8.0 | 0.0 | 0.00 | 0.00 | 0.00 | 93 | 1016.0 |
| 20260903061801 | 13 | 160 | 8.0 | 0.0 | 0.00 | 0.00 | 0.00 | 93 | 1016.0 |
| 20260903061054 | 12 | 140 | 4.8 | 0.0 | 0.00 | 0.00 | 0.00 | 93 | 1016.0 |
| 20260903060258 | 12 | 140 | 4.8 | 0.0 | 0.00 | 0.00 | 0.00 | 93 | 1016.0 |
| 20260903055057 | 12 | 140 | 4.8 | 0.0 | 0.00 | 0.00 | 0.00 | 93 | 1016.0 |
| 20260903054800 | 12 | 140 | 4.8 | 0.0 | 0.00 | 0.00 | 0.00 | 93 | 1016.0 |
| 20260903053259 | 12 | 140 | 8.0 | 0.0 | 0.00 | 0.00 | 0.00 | 93 | 1016.0 |
| 20260903053055 | 12 | 140 | 8.0 | 0.0 | 0.00 | 0.00 | 0.00 | 93 | 1016.0 |
| 20260903051801 | 12 | 140 | 8.0 | 0.0 | 0.00 | 0.00 | 0.00 | 93 | 1016.0 |
| 20260903051054 | 12 | 0.0 | 0.0 | 0.00 | 0.00 | 0.00 | 93 | 1016.0 | |
| 20260903050258 | 12 | 0.0 | 0.0 | 0.00 | 0.00 | 0.00 | 93 | 1016.0 | |
| 20260903045057 | 12 | 0.0 | 0.0 | 0.00 | 0.00 | 0.00 | 93 | 1016.0 | |
| 20260903044759 | 12 | 0.0 | 0.0 | 0.00 | 0.00 | 0.00 | 93 | 1016.0 | |
| 20260903043259 | 11 | 130 | 8.0 | 0.0 | 0.00 | 0.00 | 0.00 | 100 | 1016.0 |
| 20260903043055 | 11 | 130 | 8.0 | 0.0 | 0.00 | 0.00 | 0.00 | 100 | 1016.0 |
| 20260903041801 | 11 | 130 | 8.0 | 0.0 | 0.00 | 0.00 | 0.00 | 100 | 1016.0 |
| 20260903041054 | 11 | 130 | 8.0 | 0.0 | 0.00 | 0.00 | 0.00 | 100 | 1017.0 |
| 20260903040258 | 11 | 130 | 8.0 | 0.0 | 0.00 | 0.00 | 0.00 | 100 | 1017.0 |
| 20260903035056 | 11 | 130 | 8.0 | 0.0 | 0.00 | 0.00 | 0.00 | 100 | 1017.0 |
| 20260903034800 | 11 | 130 | 8.0 | 0.0 | 0.00 | 0.00 | 0.00 | 100 | 1017.0 |
| 20260903033259 | 10 | 110 | 8.0 | 0.0 | 0.00 | 0.00 | 0.00 | 100 | 1017.0 |
| 20260903033054 | 10 | 110 | 8.0 | 0.0 | 0.00 | 0.00 | 0.00 | 100 | 1017.0 |
| 20260903031801 | 10 | 110 | 8.0 | 0.0 | 0.00 | 0.00 | 0.00 | 100 | 1017.0 |
| 20260903031053 | 11 | 180 | 4.8 | 0.0 | 0.00 | 0.00 | 0.00 | 93 | 1017.0 |
| 20260903030258 | 11 | 180 | 4.8 | 0.0 | 0.00 | 0.00 | 0.00 | 93 | 1017.0 |
| 20260903025056 | 11 | 180 | 4.8 | 0.0 | 0.00 | 0.00 | 0.00 | 93 | 1017.0 |
| 20260903024800 | 11 | 180 | 4.8 | 0.0 | 0.00 | 0.00 | 0.00 | 93 | 1017.0 |
| 20260903023259 | 12 | 0.0 | 0.0 | 0.00 | 0.00 | 0.00 | 93 | 1017.0 | |
| 20260903023054 | 12 | 0.0 | 0.0 | 0.00 | 0.00 | 0.00 | 93 | 1017.0 | |
| 20260903021801 | 12 | 0.0 | 0.0 | 0.00 | 0.00 | 0.00 | 93 | 1017.0 | |
| 20260903021053 | 12 | 140 | 8.0 | 0.0 | 0.00 | 0.00 | 0.00 | 93 | 1017.0 |
| 20260903020258 | 12 | 140 | 8.0 | 0.0 | 0.00 | 0.00 | 0.00 | 93 | 1017.0 |
| 20260903015056 | 12 | 140 | 8.0 | 0.0 | 0.00 | 0.00 | 0.00 | 93 | 1017.0 |
| 20260903014800 | 12 | 140 | 8.0 | 0.0 | 0.00 | 0.00 | 0.00 | 93 | 1017.0 |
| 20260903013258 | 11 | 130 | 8.0 | 0.0 | 0.00 | 0.00 | 0.00 | 93 | 1017.0 |
| 20260903013054 | 11 | 130 | 8.0 | 0.0 | 0.00 | 0.00 | 0.00 | 93 | 1017.0 |
| 20260903011801 | 11 | 130 | 8.0 | 0.0 | 0.00 | 0.00 | 0.00 | 93 | 1017.0 |
| 20260903011052 | 11 | 130 | 9.7 | 0.0 | 0.00 | 0.00 | 0.00 | 100 | 1017.0 |
| 20260903010259 | 11 | 130 | 9.7 | 0.0 | 0.00 | 0.00 | 0.00 | 100 | 1017.0 |
| 20260903005056 | 11 | 130 | 9.7 | 0.0 | 0.00 | 0.00 | 0.00 | 100 | 1017.0 |
| 20260903004800 | 11 | 130 | 9.7 | 0.0 | 0.00 | 0.00 | 0.00 | 100 | 1017.0 |
| 20260903003258 | 10 | 120 | 8.0 | 0.0 | 0.00 | 0.00 | 0.00 | 100 | 1017.0 |
| 20260903003054 | 10 | 120 | 8.0 | 0.0 | 0.00 | 0.00 | 0.00 | 100 | 1017.0 |
| 20260903001800 | 10 | 120 | 8.0 | 0.0 | 0.00 | 0.00 | 0.00 | 100 | 1017.0 |
| 20260903001052 | 11 | 140 | 4.8 | 0.0 | 0.00 | 0.00 | 0.00 | 93 | 1017.0 |
| 20260903000258 | 11 | 140 | 4.8 | 0.0 | 0.00 | 0.00 | 0.00 | 93 | 1017.0 |
| 20260902235057 | 11 | 140 | 4.8 | 0.0 | 0.00 | 0.00 | 0.00 | 93 | 1017.0 |
| 20260902234800 | 11 | 140 | 4.8 | 0.0 | 0.00 | 0.00 | 0.00 | 93 | 1017.0 |
| 20260902233258 | 11 | 170 | 4.8 | 0.0 | 0.00 | 0.00 | 0.00 | 93 | 1017.0 |
| 20260902233055 | 11 | 170 | 4.8 | 0.0 | 0.00 | 0.00 | 0.00 | 93 | 1017.0 |